When you browse on this site, cookies collect data to enhance your experience and personalize the content and advertising you see.
Visit our Privacy Policy to learn more. By continuing to use the site, you agree to this use of cookies and data.
  • In Hungary
  • List of Countries
  • For 7 days
  • Water Temperature
  • Satellite Maps
  • Weather Map
  • News
  • Weather Widgets
  • user-avatar
    Login

    Hourly Weather Ibadan

    Today, 20 January, Sunday

    Time Temperature Precipitation Wind Pressure Humidity
    00:00 +28°C° 0 mm 1 mps 743 mmHg 79%
    01:00 +28°C° 0.3 mm 1 mps 743 mmHg 82%
    02:00 +27°C° 0.3 mm 1 mps 742 mmHg 85%
    03:00 +27°C° 0.3 mm 1 mps 742 mmHg 87%
    04:00 +27°C° 0.2 mm 1 mps 742 mmHg 89%
    05:00 +24°C° 0.2 mm 0 mps 742 mmHg 90%
    06:00 +24°C° 0.2 mm 0 mps 742 mmHg 92%
    07:00 +28°C° 0.4 mm 1 mps 743 mmHg 80%
    08:00 +30°C° 0.4 mm 1 mps 743 mmHg 69%
    09:00 +32°C° 0.4 mm 2 mps 744 mmHg 57%
    10:00 +35°C° 0 mm 1 mps 743 mmHg 48%
    11:00 +39°C° 0 mm 1 mps 743 mmHg 38%
    12:00 +41°C° 0 mm 1 mps 743 mmHg 28%
    13:00 +40°C° 0 mm 1 mps 742 mmHg 30%
    14:00 +36°C° 0 mm 0 mps 742 mmHg 32%
    15:00 +34°C° 0 mm 0 mps 741 mmHg 34%
    16:00 +36°C° 0 mm 1 mps 741 mmHg 36%
    17:00 +35°C° 0 mm 1 mps 741 mmHg 38%
    18:00 +34°C° 0 mm 1 mps 742 mmHg 40%
    19:00 +34°C° 0 mm 2 mps 742 mmHg 49%
    20:00 +31°C° 0 mm 2 mps 743 mmHg 57%
    21:00 +30°C° 0 mm 3 mps 743 mmHg 65%
    22:00 +30°C° 0 mm 2 mps 743 mmHg 68%
    23:00 +29°C° 0 mm 2 mps 743 mmHg 71%

    Tomorrow, 21 January, Monday

    Time Temperature Precipitation Wind Pressure Humidity
    00:00 +28°C° 0 mm 1 mps 743 mmHg 74%
    01:00 +28°C° 0 mm 1 mps 742 mmHg 76%
    02:00 +28°C° 0 mm 1 mps 742 mmHg 79%
    03:00 +27°C° 0 mm 1 mps 742 mmHg 81%
    04:00 +27°C° 0 mm 1 mps 742 mmHg 83%
    05:00 +27°C° 0 mm 1 mps 742 mmHg 85%
    06:00 +27°C° 0 mm 1 mps 743 mmHg 86%
    07:00 +29°C° 0 mm 1 mps 743 mmHg 76%
    08:00 +31°C° 0 mm 1 mps 744 mmHg 66%
    09:00 +33°C° 0 mm 1 mps 744 mmHg 56%
    10:00 +35°C° 0 mm 1 mps 744 mmHg 47%
    11:00 +39°C° 0 mm 1 mps 743 mmHg 39%
    12:00 +42°C° 0 mm 1 mps 743 mmHg 30%
    13:00 +41°C° 0 mm 1 mps 742 mmHg 32%
    14:00 +40°C° 0 mm 1 mps 741 mmHg 33%
    15:00 +39°C° 0 mm 1 mps 740 mmHg 34%
    16:00 +37°C° 0 mm 1 mps 740 mmHg 36%
    17:00 +36°C° 0 mm 1 mps 741 mmHg 39%
    18:00 +36°C° 0 mm 2 mps 741 mmHg 42%
    19:00 +34°C° 0.1 mm 2 mps 741 mmHg 52%
    20:00 +31°C° 0.1 mm 2 mps 742 mmHg 62%
    21:00 +30°C° 0.1 mm 3 mps 742 mmHg 73%
    22:00 +29°C° 0 mm 2 mps 742 mmHg 75%
    23:00 +29°C° 0 mm 2 mps 742 mmHg 78%

    Day after tomorrow, 22 January, Tuesday

    Time Temperature Precipitation Wind Pressure Humidity
    00:00 +28°C° 0 mm 1 mps 742 mmHg 80%
    01:00 +28°C° 0 mm 1 mps 742 mmHg 82%
    02:00 +28°C° 0 mm 1 mps 741 mmHg 84%
    03:00 +28°C° 0 mm 1 mps 741 mmHg 86%
    04:00 +27°C° 0 mm 1 mps 741 mmHg 87%
    05:00 +27°C° 0 mm 1 mps 742 mmHg 88%
    06:00 +25°C° 0 mm 0 mps 742 mmHg 89%
    07:00 +29°C° 0 mm 1 mps 743 mmHg 80%
    08:00 +30°C° 0 mm 1 mps 743 mmHg 71%
    09:00 +32°C° 0 mm 1 mps 744 mmHg 61%
    10:00 +35°C° 0 mm 1 mps 743 mmHg 52%
    11:00 +37°C° 0 mm 1 mps 743 mmHg 42%
    12:00 +41°C° 0 mm 1 mps 742 mmHg 33%
    13:00 +40°C° 0 mm 1 mps 741 mmHg 34%
    14:00 +37°C° 0 mm 1 mps 740 mmHg 35%
    15:00 +36°C° 0 mm 1 mps 739 mmHg 36%
    16:00 +36°C° 0 mm 1 mps 740 mmHg 38%
    17:00 +35°C° 0 mm 1 mps 740 mmHg 39%
    18:00 +34°C° 0 mm 1 mps 740 mmHg 41%
    19:00 +34°C° 0 mm 2 mps 740 mmHg 49%
    20:00 +32°C° 0 mm 2 mps 741 mmHg 58%
    21:00 +31°C° 0 mm 3 mps 742 mmHg 66%
    22:00 +30°C° 0 mm 2 mps 741 mmHg 71%
    23:00 +29°C° 0 mm 2 mps 741 mmHg 76%

    23 January, Wednesday

    Time Temperature Precipitation Wind Pressure Humidity
    00:00 +28°C° 0 mm 1 mps 741 mmHg 81%
    01:00 +28°C° 0 mm 1 mps 741 mmHg 82%
    02:00 +28°C° 0 mm 2 mps 741 mmHg 83%
    03:00 +29°C° 0 mm 2 mps 740 mmHg 84%
    04:00 +29°C° 0.1 mm 2 mps 741 mmHg 82%
    05:00 +29°C° 0.1 mm 1 mps 741 mmHg 81%
    06:00 +29°C° 0.1 mm 1 mps 742 mmHg 80%
    07:00 +30°C° 0.1 mm 1 mps 742 mmHg 75%
    08:00 +30°C° 0.1 mm 1 mps 743 mmHg 71%
    09:00 +31°C° 0.1 mm 1 mps 743 mmHg 66%
    10:00 +34°C° 0 mm 1 mps 743 mmHg 56%
    11:00 +36°C° 0 mm 1 mps 742 mmHg 45%
    12:00 +40°C° 0 mm 1 mps 742 mmHg 35%
    13:00 +39°C° 0 mm 1 mps 741 mmHg 34%
    14:00 +39°C° 0 mm 1 mps 740 mmHg 34%
    15:00 +38°C° 0 mm 2 mps 739 mmHg 33%
    16:00 +37°C° 0 mm 3 mps 740 mmHg 41%
    17:00 +35°C° 0 mm 3 mps 740 mmHg 49%
    18:00 +34°C° 0 mm 4 mps 740 mmHg 56%
    19:00 +31°C° 0 mm 3 mps 741 mmHg 62%
    20:00 +30°C° 0 mm 3 mps 741 mmHg 68%
    21:00 +29°C° 0 mm 3 mps 742 mmHg 73%
    22:00 +29°C° 0 mm 2 mps 742 mmHg 76%
    23:00 +28°C° 0 mm 2 mps 741 mmHg 79%

    24 January, Thursday

    Time Temperature Precipitation Wind Pressure Humidity
    00:00 +28°C° 0 mm 1 mps 741 mmHg 81%
    01:00 +28°C° 0 mm 1 mps 741 mmHg 81%
    02:00 +28°C° 0 mm 1 mps 740 mmHg 81%
    03:00 +28°C° 0 mm 1 mps 740 mmHg 82%
    04:00 +28°C° 0.1 mm 1 mps 740 mmHg 82%
    05:00 +28°C° 0.1 mm 1 mps 741 mmHg 83%
    06:00 +27°C° 0.1 mm 1 mps 741 mmHg 83%
    07:00 +29°C° 0.2 mm 1 mps 742 mmHg 75%
    08:00 +31°C° 0.2 mm 1 mps 742 mmHg 67%
    09:00 +33°C° 0.2 mm 1 mps 743 mmHg 58%
    10:00 +34°C° 0.4 mm 1 mps 742 mmHg 52%
    11:00 +35°C° 0.4 mm 1 mps 742 mmHg 46%
    12:00 +37°C° 0.4 mm 1 mps 741 mmHg 41%
    13:00 +36°C° 0 mm 1 mps 740 mmHg 40%
    14:00 +36°C° 0 mm 1 mps 740 mmHg 40%
    15:00 +37°C° 0 mm 2 mps 739 mmHg 40%
    16:00 +36°C° 0 mm 2 mps 739 mmHg 43%
    17:00 +35°C° 0 mm 2 mps 739 mmHg 46%
    18:00 +34°C° 0 mm 2 mps 740 mmHg 49%
    19:00 +32°C° 0 mm 2 mps 740 mmHg 56%
    20:00 +31°C° 0 mm 3 mps 741 mmHg 63%
    21:00 +29°C° 0 mm 3 mps 742 mmHg 69%
    22:00 +29°C° 0 mm 2 mps 742 mmHg 72%
    23:00 +28°C° 0 mm 2 mps 741 mmHg 75%

    25 January, Friday

    Time Temperature Precipitation Wind Pressure Humidity
    00:00 +28°C° 0 mm 1 mps 741 mmHg 78%
    01:00 +28°C° 0.2 mm 1 mps 741 mmHg 80%
    02:00 +27°C° 0.2 mm 1 mps 741 mmHg 82%
    03:00 +27°C° 0.2 mm 1 mps 740 mmHg 84%
    04:00 +27°C° 0 mm 1 mps 741 mmHg 85%
    05:00 +27°C° 0 mm 1 mps 741 mmHg 86%
    06:00 +27°C° 0 mm 1 mps 742 mmHg 87%
    07:00 +28°C° 0 mm 1 mps 742 mmHg 79%
    08:00 +30°C° 0 mm 2 mps 743 mmHg 70%
    09:00 +32°C° 0 mm 2 mps 743 mmHg 62%
    10:00 +32°C° 0 mm 2 mps 743 mmHg 60%
    11:00 +32°C° 0 mm 2 mps 742 mmHg 58%
    12:00 +34°C° 0 mm 2 mps 742 mmHg 56%
    13:00 +34°C° 0 mm 2 mps 741 mmHg 55%
    14:00 +34°C° 0 mm 2 mps 740 mmHg 55%
    15:00 +35°C° 0 mm 2 mps 739 mmHg 54%
    16:00 +34°C° 0 mm 2 mps 740 mmHg 57%
    17:00 +32°C° 0 mm 2 mps 740 mmHg 59%
    18:00 +31°C° 0 mm 2 mps 740 mmHg 62%
    19:00 +31°C° 0 mm 2 mps 741 mmHg 66%
    20:00 +30°C° 0 mm 2 mps 741 mmHg 70%
    21:00 +29°C° 0 mm 3 mps 742 mmHg 74%
    22:00 +29°C° 0 mm 2 mps 742 mmHg 77%
    23:00 +28°C° 0 mm 1 mps 741 mmHg 80%
    Show more